Station CHTS1 - 8665530 - Charleston, Cooper River Entrance, SC Image indicating link to RSS feed of recent meteorological observations for station CHTS1


Conditions at CHTS1 as of
(4:30 pm EDT)
2030 GMT on 07/19/2024:
     

Click on the graph icon in the table below to see a time series plot of the last five days of that observation.

5-day plot - Wind Direction Wind Direction (WDIR): S ( 190 deg true )
5-day plot - Wind Speed Wind Speed (WSPD): 8.9 kts
5-day plot - Wind Gust Wind Gust (GST): 11.1 kts
5-day plot - Atmospheric Pressure Atmospheric Pressure (PRES):30.06 in
5-day plot - Air Temperature Air Temperature (ATMP): 82.2 °F
5-day plot - Water Temperature Water Temperature (WTMP): 86.7 °F
5-day plot - Wind Speed at 10 Meters Wind Speed at 10 meters (WSPD10M): 7.8 kts
5-day plot - Wind Speed at 20 Meters Wind Speed at 20 meters (WSPD20M): 9.7 kts
5-day plot -  Wind Speed, Wind Gust and Atmospheric Pressure Combined plot of Wind Speed, Gust, and Air Pressure
NOS Water Level Observation Network Water Level
Previous observations
TIME
(EDT)
5-day plot - Wind Direction
WDIR
 
5-day plot - Wind Speed
WSPD
kts
5-day plot - Wind Gust
GST
kts
5-day plot - Wave Height
WVHT
ft
5-day plot - Dominant Wave Period
DPD
sec
5-day plot - Average Wave Period
APD
sec
5-day plot - Mean Wave Direction
MWD
 
5-day plot - Atmospheric Pressure
PRES
in
5-day plot - Pressure Tendency
PTDY
in
5-day plot - Air Temperature
ATMP
°F
5-day plot - Water Temperature
WTMP
°F
5-day plot - Dew Point
DEWP
°F
5-day plot - Salinity
SAL
psu
5-day plot - Visibility
VIS
nmi
5-day plot - Tide (above MLLW)
TIDE
ft
2024-07-19 04:24 pm S 8.9 11.1----30.06- 81.9 86.7----
2024-07-19 04:18 pm S 8.0 11.1----30.06- 81.9 86.7----
2024-07-19 04:12 pmSSW 5.1 11.1----30.06- 82.0 86.7----
2024-07-19 04:06 pm S 8.0 12.0----30.05- 81.3 86.9----
2024-07-19 04:00 pmSSE 11.1 14.0----30.05-0.06 81.5 86.9----
2024-07-19 03:54 pmSSE 9.9 14.0----30.04- 81.0 86.9----
2024-07-19 03:48 pm S 13.0 15.0----30.06- 79.9 86.9----
2024-07-19 03:42 pmSSE 12.0 14.0----30.06- 80.8 86.9----
2024-07-19 03:36 pmSSE 8.0 12.0----30.06- 80.4 86.9----
2024-07-19 03:30 pmSSE 12.0 15.9----30.06- 80.8 86.7----
2024-07-19 03:24 pmSSE 14.0 17.1----30.06- 79.9 86.7----
2024-07-19 03:18 pm S 17.1 20.0----30.06- 80.2 86.5----
2024-07-19 03:12 pmSSE 8.9 11.1----30.07- 80.1 86.5----
2024-07-19 03:06 pmSSE 8.9 13.0----30.07- 80.4 86.7----
2024-07-19 03:00 pmSSE 12.0 13.0----30.08-0.04 81.0 87.1----
2024-07-19 02:54 pmSSE 13.0 15.0----30.08- 81.3 87.1----
2024-07-19 02:48 pm SE 14.0 17.1----30.08- 82.0 87.4----
2024-07-19 02:42 pmESE 12.0 13.0----30.09- 81.1 87.4----
2024-07-19 02:36 pmESE 13.0 15.0----30.09- 80.6 87.3----
2024-07-19 02:30 pmESE 12.0 15.9----30.09- 80.6 87.1----
2024-07-19 02:24 pm SE 14.0 15.9----30.09- 80.4 87.3----
2024-07-19 02:18 pmSSE 6.0 9.9----30.09- 80.1 87.6----
2024-07-19 02:12 pmESE 8.9 11.1----30.09- 79.5 87.6----
2024-07-19 02:06 pm E 8.0 11.1----30.09- 79.0 87.6----
2024-07-19 02:00 pmSSW 4.1 12.0----30.10-0.02 79.9 87.8----
2024-07-19 01:54 pm S 8.0 13.0----30.10- 83.7 87.8----
2024-07-19 01:48 pm SE 12.0 15.9----30.09- 83.5 88.0----
2024-07-19 01:42 pmSSE 12.0 18.1----30.09- 83.7 88.0----
2024-07-19 01:36 pm SE 13.0 15.9----30.09- 83.8 87.4----
2024-07-19 01:30 pm SE 12.0 14.0----30.09- 83.5 87.3----
2024-07-19 01:24 pm SE 9.9 12.0----30.09- 84.0 87.1----
2024-07-19 01:18 pmSSE 9.9 12.0----30.09- 83.8 87.1----
2024-07-19 01:12 pmSSE 9.9 13.0----30.10- 84.4 87.1----
2024-07-19 01:06 pmSSE 7.0 11.1----30.10- 84.4 87.1----
2024-07-19 01:00 pmSSE 6.0 8.9----30.10-0.01 84.4 87.3----
2024-07-19 12:54 pmSSE 6.0 9.9----30.10- 84.7 87.1----
2024-07-19 12:48 pmSSE 5.1 7.0----30.10- 84.7 87.1----
2024-07-19 12:42 pm S 6.0 8.0----30.11- 84.7 87.1----
2024-07-19 12:36 pm S 6.0 7.0----30.11- 84.4 87.1----
2024-07-19 12:30 pm S 5.1 7.0----30.11- 84.2 86.9----
2024-07-19 12:24 pmSSE 5.1 7.0----30.11- 84.0 86.9----
2024-07-19 12:18 pm S 4.1 5.1----30.11- 84.0 86.9----
2024-07-19 12:12 pm S 6.0 7.0----30.11- 83.8 86.7----
2024-07-19 12:06 pm S 6.0 8.0----30.11- 83.5 86.7----
2024-07-19 12:00 pm S 5.1 8.9----30.11+0.03 83.7 86.7----
2024-07-19 11:54 am S 6.0 8.0----30.12- 83.5 86.7----
2024-07-19 11:48 am S 6.0 7.0----30.12- 83.5 86.5----
2024-07-19 11:42 amSSW 4.1 6.0----30.12- 83.7 86.5----
2024-07-19 11:36 am S 4.1 6.0----30.12- 83.3 86.5----
2024-07-19 11:30 am SW 4.1 7.0----30.12- 83.5 86.5----
2024-07-19 11:24 am SW 4.1 8.9----30.12- 83.3 86.5----
2024-07-19 11:18 am SW 6.0 8.0----30.12- 83.3 86.5----
2024-07-19 11:12 am SW 5.1 8.9----30.12- 83.1 86.5----
2024-07-19 11:06 amSSW 6.0 8.0----30.12- 82.9 86.5----
2024-07-19 11:00 amWSW 5.1 8.9----30.12+0.04 83.3 86.5----
2024-07-19 10:54 amSSW 5.1 8.9----30.12- 82.8 86.4----
2024-07-19 10:48 am SW 8.0 9.9----30.12- 82.8 86.4----
2024-07-19 10:42 amSSW 7.0 8.9----30.12- 82.8 86.4----
2024-07-19 10:36 am SW 5.1 8.9----30.12- 83.3 86.4----
2024-07-19 10:30 am SW 5.1 7.0----30.12- 82.8 86.4----
2024-07-19 10:24 am SW 5.1 8.0----30.12- 82.4 86.4----
2024-07-19 10:18 amSSW 5.1 8.0----30.12- 82.2 86.4----
2024-07-19 10:12 amWSW 5.1 7.0----30.12- 82.6 86.4----
2024-07-19 10:06 am W 5.1 8.0----30.11- 82.2 86.4----
2024-07-19 10:00 am W 5.1 7.0----30.11+0.04 82.4 86.4----
2024-07-19 09:54 amWSW 6.0 11.1----30.11- 82.2 86.4----
2024-07-19 09:48 amWSW 6.0 11.1----30.10- 82.2 86.4----
2024-07-19 09:42 amWSW 7.0 8.9----30.10- 82.4 86.4----
2024-07-19 09:36 amWSW 6.0 8.9----30.10- 82.4 86.4----
2024-07-19 09:30 am W 5.1 7.0----30.09- 82.6 86.4----
2024-07-19 09:24 am W 6.0 8.0----30.09- 81.9 86.4----
2024-07-19 09:18 am W 5.1 7.0----30.09- 82.0 86.4----
2024-07-19 09:12 am W 7.0 9.9----30.09- 81.7 86.4----
2024-07-19 09:06 am W 7.0 8.9----30.09- 81.5 86.4----
2024-07-19 09:00 am W 6.0 8.9----30.09+0.04 81.3 86.4----
2024-07-19 08:54 am W 5.1 12.0----30.09- 81.3 86.4----
2024-07-19 08:48 am W 8.0 12.0----30.09- 81.1 86.4----
2024-07-19 08:42 amWNW 7.0 11.1----30.09- 81.9 86.4----
2024-07-19 08:36 am W 6.0 8.0----30.08- 81.9 86.5----
2024-07-19 08:30 am W 6.0 11.1----30.08- 81.7 86.5----
2024-07-19 08:24 amWNW 5.1 8.0----30.08- 81.7 86.5----
2024-07-19 08:18 amWNW 7.0 8.9----30.08- 81.1 86.5----
2024-07-19 08:12 amWNW 5.1 8.9----30.08- 81.0 86.5----
2024-07-19 08:06 amWNW 4.1 12.0----30.08- 80.8 86.5----
2024-07-19 08:00 amWNW 7.0 9.9----30.08+0.04 80.2 86.5----
2024-07-19 07:54 amWNW 5.1 8.9----30.08- 80.1 86.5----
2024-07-19 07:48 amWNW 7.0 9.9----30.08-- 86.5----
2024-07-19 07:42 am W 5.1 11.1----30.08-- 86.5----
2024-07-19 07:36 am W 7.0 9.9----30.08-- 86.5----
2024-07-19 07:30 amWNW 6.0 12.0----30.07- 79.3 86.4----
2024-07-19 07:24 am W 5.1 8.9----30.07- 78.8 86.5----
2024-07-19 07:18 am W 5.1 8.0----30.07- 78.1 86.5----
2024-07-19 07:12 am W 5.1 8.0----30.07- 77.9 86.5----
2024-07-19 07:06 am W 2.9 8.0----30.07- 77.7 86.5----
2024-07-19 07:00 am W 5.1 8.9----30.07+0.05 77.4 86.5----
2024-07-19 06:54 amWSW 5.1 8.0----30.07- 77.4 86.5----
2024-07-19 06:48 am W 5.1 8.0----30.07-- 86.5----
2024-07-19 06:42 am W 4.1 7.0----30.07-- 86.5----
2024-07-19 06:36 am W 7.0 8.0----30.07-- 86.5----
2024-07-19 06:30 amWSW 5.1 7.0----30.06- 77.2 86.5----
2024-07-19 06:24 am W 6.0 9.9----30.06- 77.2 86.5----
2024-07-19 06:18 amWSW 5.1 8.9----30.06- 77.4 86.5----
2024-07-19 06:12 amWSW 6.0 8.9----30.06- 77.4 86.5----
2024-07-19 06:06 amWSW 5.1 6.0----30.05- 77.5 86.5----
2024-07-19 06:00 amWSW 5.1 7.0----30.05+0.02 77.7 86.5----
2024-07-19 05:54 amWSW 4.1 7.0----30.05- 77.7 86.5----
2024-07-19 05:48 amWSW 5.1 6.0----30.05- 77.7 86.5----
2024-07-19 05:42 amWSW 5.1 6.0----30.04- 77.7 86.5----
2024-07-19 05:36 amWSW 5.1 7.0----30.04- 77.7 86.5----
2024-07-19 05:30 amWSW 5.1 6.0----30.04- 77.9 86.5----
2024-07-19 05:24 am W 5.1 8.0----30.04- 77.9 86.5----
2024-07-19 05:18 am W 5.1 6.0----30.04- 77.9 86.5----
2024-07-19 05:12 am W 4.1 7.0----30.03- 77.7 86.5----
2024-07-19 05:06 am W 4.1 6.0----30.03- 77.7 86.5----
2024-07-19 05:00 am W 4.1 6.0----30.04+0.00 77.9 86.5----
2024-07-19 04:54 amWSW 5.1 6.0----30.03- 77.9 86.7----
2024-07-19 04:48 am W 5.1 7.0----30.03- 77.9 86.7----
2024-07-19 04:42 amWSW 4.1 7.0----30.03- 77.9 86.7----
2024-07-19 04:36 amWSW 4.1 6.0----30.03- 78.1 86.7----
2024-07-19 04:30 amWSW 4.1 6.0----30.03- 78.1 86.7----
2024-07-19 04:24 amWSW 5.1 6.0----30.03- 78.4 86.7----
2024-07-19 04:18 amWSW 4.1 8.0----30.03- 78.4 86.7----
2024-07-19 04:12 am SW 4.1 7.0----30.03- 78.4 86.7----
2024-07-19 04:06 am SW 4.1 6.0----30.03- 78.8 86.7----
2024-07-19 04:00 am SW 5.1 7.0----30.03-0.02 78.8 86.7----
2024-07-19 03:54 am SW 5.1 7.0----30.03- 79.0 86.7----
2024-07-19 03:48 am SW 5.1 6.0----30.03- 79.0 86.7----
2024-07-19 03:42 am SW 4.1 7.0----30.03- 79.2 86.7----
2024-07-19 03:36 am SW 4.1 6.0----30.03- 79.2 86.7----
2024-07-19 03:30 am SW 5.1 7.0----30.03- 79.3 86.7----
2024-07-19 03:24 am SW 4.1 7.0----30.03- 79.3 86.7----
2024-07-19 03:18 amSSW 6.0 6.0----30.03- 79.5 86.7----
2024-07-19 03:12 am SW 5.1 6.0----30.03- 79.7 86.7----
2024-07-19 03:06 am SW 2.9 5.1----30.03- 79.7 86.5----
2024-07-19 03:00 am SW 4.1 6.0----30.03-0.03 79.5 86.5----
2024-07-19 02:54 am SW 5.1 6.0----30.03- 79.7 86.5----
2024-07-19 02:48 am SW 4.1 6.0----30.03- 79.7 86.5----
2024-07-19 02:42 am SW 2.9 6.0----30.03- 79.7 86.5----
2024-07-19 02:36 amWSW 5.1 6.0----30.03- 79.5 86.5----
2024-07-19 02:30 amWSW 4.1 6.0----30.03- 79.9 86.7----
2024-07-19 02:24 amWSW 4.1 5.1----30.03- 79.7 86.7----
2024-07-19 02:18 am SW 2.9 6.0----30.03- 79.9 86.7----
2024-07-19 02:12 am W 5.1 6.0----30.03- 79.9 86.5----
2024-07-19 02:06 am W 4.1 5.1----30.03- 80.2 86.7----
2024-07-19 02:00 am W 2.9 5.1----30.03+0.00 80.2 86.7----
2024-07-19 01:54 am W 4.1 8.9----30.03- 80.2 86.7----
2024-07-19 01:48 am W 5.1 7.0----30.03- 80.4-----
2024-07-19 01:42 am W 1.9 6.0----30.04- 80.4-----
2024-07-19 01:36 am W 5.1 8.9----30.04- 80.6-----
2024-07-19 01:30 am W 4.1 8.0----30.04- 80.6 86.5----
2024-07-19 01:24 am W 4.1 8.0----30.05- 80.8 86.5----
2024-07-19 01:18 am W 2.9 8.0----30.05- 80.8 86.5----
2024-07-19 01:12 amWNW 4.1 8.9----30.05- 81.0 86.5----
2024-07-19 01:06 am W 6.0 8.9----30.05- 81.0 86.5----
2024-07-19 01:00 am W 5.1 12.0----30.05+0.01 81.0 86.5----
2024-07-19 12:54 am W 8.9 12.0----30.05- 81.0 86.5----
2024-07-19 12:48 am W 8.0 11.1----30.05- 81.1 86.5----
2024-07-19 12:42 am W 5.1 8.0----30.05- 81.1 86.7----
2024-07-19 12:36 am W 6.0 9.9----30.06- 81.1 86.5----
2024-07-19 12:30 am W 6.0 11.1----30.06- 81.3 86.5----
2024-07-19 12:24 amWSW 5.1 9.9----30.06- 81.5 86.5----
2024-07-19 12:18 am W 7.0 12.0----30.06- 81.5 86.5----
2024-07-19 12:12 amWSW 5.1 8.0----30.06- 81.3 86.5----
2024-07-19 12:06 amWSW 5.1 7.0----30.06- 81.5 86.5----
2024-07-19 12:00 amWSW 6.0 8.0----30.06+0.03 81.7 86.5----
2024-07-18 11:54 pmWSW 4.1 6.0----30.06- 81.7 86.5----
2024-07-18 11:48 pmWSW 5.1 6.0----30.06- 81.9 86.5----
2024-07-18 11:42 pm SW 5.1 7.0----30.05- 82.0 86.5----
2024-07-18 11:36 pm SW 5.1 7.0----30.05- 82.0 86.5----
2024-07-18 11:30 pmWSW 4.1 6.0----30.05- 81.9 86.5----
2024-07-18 11:24 pmWSW 4.1 5.1----30.05- 81.9 86.5----
2024-07-18 11:18 pmWSW 5.1 7.0----30.05- 81.9 86.5----
2024-07-18 11:12 pmWSW 6.0 8.0----30.04- 82.0 86.5----
2024-07-18 11:06 pm SW 7.0 9.9----30.04- 82.2 86.5----
2024-07-18 11:00 pmWSW 6.0 8.0----30.04+0.05 82.2 86.4----
2024-07-18 10:54 pm SW 6.0 8.9----30.04- 82.2 86.4----
2024-07-18 10:48 pmWSW 6.0 8.9----30.04- 82.2 86.4----
2024-07-18 10:42 pmWSW 6.0 8.9----30.04- 82.0 86.4----
2024-07-18 10:36 pmWSW 6.0 8.9----30.04- 82.0 86.4----
2024-07-18 10:30 pmWSW 6.0 8.0----30.04- 82.2 86.4----
2024-07-18 10:24 pmWSW 6.0 8.9----30.04- 82.4 86.4----
2024-07-18 10:18 pmWSW 5.1 8.9----30.04- 82.6 86.4----
2024-07-18 10:12 pmWSW 6.0 8.9----30.03- 82.4 86.4----
2024-07-18 10:06 pmWSW 7.0 11.1----30.03- 82.8 86.4----
2024-07-18 10:00 pm SW 7.0 11.1----30.03+0.05 82.8 86.4----
2024-07-18 09:54 pmWSW 6.0 11.1----30.03- 82.8 86.4----
2024-07-18 09:48 pmWSW 6.0 8.9----30.03- 82.9 86.4----
2024-07-18 09:42 pm SW 6.0 9.9----30.03- 83.1 86.4----
2024-07-18 09:36 pm SW 7.0 12.0----30.03- 83.1 86.5----
2024-07-18 09:30 pm SW 8.9 12.0----30.02- 83.3 86.4----
2024-07-18 09:24 pm SW 6.0 11.1----30.03- 83.3 86.5----
2024-07-18 09:18 pm SW 8.0 13.0----30.03- 83.3 86.5----
2024-07-18 09:12 pm SW 5.1 8.9----30.03- 83.3 86.4----
2024-07-18 09:06 pm SW 6.0 8.9----30.03- 83.3 86.4----
2024-07-18 09:00 pm SW 6.0 8.9----30.03+0.06 83.5 86.4----
2024-07-18 08:54 pm SW 8.9 13.0----30.03- 83.5 86.5----
2024-07-18 08:48 pm SW 8.9 14.0----30.02- 83.7 86.5----
2024-07-18 08:42 pm SW 9.9 14.0----30.02- 83.7 86.5----
2024-07-18 08:36 pm SW 8.0 15.9----30.01- 83.7 86.5----
2024-07-18 08:30 pm SW 11.1 15.9----30.01- 83.8 86.5----
2024-07-18 08:24 pm SW 11.1 17.1----30.01- 83.8 86.5----
2024-07-18 08:18 pm SW 12.0 17.1----30.00- 83.8 86.5----
2024-07-18 08:12 pm SW 11.1 17.1----29.99- 84.0 86.5----
2024-07-18 08:06 pm SW 12.0 18.1----29.99- 84.0 86.5----
2024-07-18 08:00 pm SW 11.1 18.1----29.99+0.00- 86.5----
2024-07-18 07:54 pm SW 12.0 20.0----29.99-- 86.5----
2024-07-18 07:48 pm SW 11.1 15.0----29.99- 84.4 86.4----
2024-07-18 07:42 pmSSW 11.1 17.1----29.99- 84.4 86.4----
2024-07-18 07:36 pm SW 12.0 17.1----29.98- 84.2 86.4----
2024-07-18 07:30 pm SW 13.0 20.0----29.98- 84.2 86.4----
2024-07-18 07:24 pm SW 9.9 17.1----29.99- 84.2 86.4----
2024-07-18 07:00 pmSSW 14.0 21.0----29.98-0.01 84.4 86.5----
2024-07-18 06:54 pm SW 18.1 24.1----29.98- 84.6 86.5----
2024-07-18 06:48 pm SW 12.0 18.1----29.98- 84.9 86.5----
2024-07-18 06:42 pmSSW 14.0 20.0----29.98- 85.3 86.5----
2024-07-18 06:36 pm SW 13.0 19.0----29.98- 84.9 86.5----
2024-07-18 06:30 pmSSW 14.0 19.0----29.98- 84.7 86.5----
2024-07-18 06:24 pm SW 14.0 22.0----29.98- 84.7 86.5----
2024-07-18 06:18 pmSSW 15.0 19.0----29.97- 84.9 86.5----
2024-07-18 06:12 pm SW 15.0 22.9----29.98- 84.9 86.5----
2024-07-18 06:06 pmSSW 18.1 22.0----29.97- 84.9 86.5----
2024-07-18 06:00 pmSSW 17.1 25.1----29.97-0.06 85.1 86.4----
2024-07-18 05:54 pmSSW 15.9 24.1----29.97- 85.1 86.5----
2024-07-18 05:48 pmSSW 17.1 21.0----29.97- 85.3 86.5----
2024-07-18 05:42 pmSSW 18.1 22.0----29.97- 85.3 86.5----
2024-07-18 05:36 pmSSW 18.1 22.9----29.98- 85.6 86.5----
2024-07-18 05:30 pm SW 15.0 19.0----29.98- 85.6 86.5----
2024-07-18 05:24 pmSSW 14.0 20.0----29.98- 85.8 86.5----
2024-07-18 05:18 pm SW 15.0 20.0----29.98- 85.5 86.5----
2024-07-18 05:12 pmSSW 17.1 22.0----29.98- 85.5 86.5----
2024-07-18 05:06 pm SW 15.9 22.0----29.98- 85.3 86.7----
2024-07-18 05:00 pmSSW 17.1 20.0----29.98-0.05 85.5 86.7----
2024-07-18 04:54 pmSSW 13.0 20.0----29.99- 85.6 87.1----